Volver al catálogo

CZ-6A DEB

ActivoPO
NORAD 64644·DEBRIS·🇨🇳 China

Lanzado Aug 6, 2024 desde Taiyuan Satellite Launch Center

Loading…

Próximos Pases (próximas 24 horas)

TLE

ActualizadoSource: Space-Track

Época: Sep 13, 2026, 07:12 UTC

1 64644U 24140AEJ 26256.30019655  .00000045  00000-0  17134-4 0  9994
2 64644  89.0212 268.2427 0078543 280.8201  78.4151 14.11544558102116

Sigue CZ-6A DEB en tiempo real con AllMySat

Download on the App Store